Home   Weather   Dallas   Past weeks
Flag for USA

Past Weather in Dallas, Texas, USA — Yesterday and Last 2 Weeks

Now
72 °F

Passing clouds.


Feels Like: 77 °F
Forecast: 81 / 58 °F
Wind: 14 mph from South

Location: Dallas Love Field

Current Time: Apr 21, 2019 at 11:49:06 am

Latest Report: Apr 21, 2019 at 10:53 am


Visibility: 10 mi

Pressure: 29.97 "Hg

Humidity: 55%

Dew Point: 55 °F

Location of DallasLocation

Past Weather in Dallas — Graph

°F

Dallas Temperature Yesterday

Maximum temperature yesterday: 79 °F (at 3:53 pm)
Minimum temperature yesterday: 48 °F (at 4:53 am)
Average temperature yesterday: 66 °F

High & Low Weather Summary for the Past Weeks

 TemperatureHumidityPressure
High90 °F (Apr 10, 2:53 pm)94% (Apr 7, 5:53 am)30.10 "Hg (Apr 7, 5:53 am)
Low43 °F (Apr 13, 11:53 pm)19% (Apr 11, 8:53 am)29.39 "Hg (Apr 10, 7:53 pm)
Average66 °F63%29.83 "Hg
* Reported Apr 6 10:01 am — Apr 21 9:53 am, Dallas. Weather by CustomWeather, © 2019

Note: Actual official high and low records may vary slightly from our data, if they occured in-between our weather recording intervals... More about our weather records

Advertising

Dallas Weather History for the Previous 24 Hours

Scroll right to see more
 ConditionsComfort  
Time TempWeatherWind HumidityBarometerVisibility
9:53 am
Sun, Apr 21
69 °FPassing clouds.10 mph61%29.96 "Hg10 mi
8:53 am65 °FPassing clouds.12 mph73%29.95 "Hg10 mi
7:53 am61 °FPassing clouds.9 mph78%29.94 "Hg10 mi
6:53 am60 °FPassing clouds.9 mph78%29.91 "Hg10 mi
5:53 am61 °FPassing clouds.9 mph72%29.90 "Hg10 mi
4:53 am62 °FPassing clouds.7 mph70%29.89 "Hg10 mi
3:53 am63 °FPassing clouds.10 mph65%29.89 "Hg10 mi
2:53 am65 °FPassing clouds.14 mph59%29.89 "Hg10 mi
1:53 am66 °FPassing clouds.12 mph56%29.91 "Hg10 mi
12:53 am67 °FPassing clouds.10 mph55%29.92 "Hg10 mi
11:53 pm
Sat, Apr 20
70 °FPassing clouds.14 mph47%29.92 "Hg10 mi
10:53 pm69 °FClear.14 mph51%29.91 "Hg10 mi
9:53 pm71 °FClear.15 mph49%29.91 "Hg10 mi
8:53 pm73 °FPassing clouds.10 mph46%29.91 "Hg10 mi
7:53 pm76 °FPassing clouds.12 mph39%29.90 "Hg10 mi
6:53 pm78 °FSunny.10 mph33%29.91 "Hg10 mi
5:53 pm79 °FSunny.8 mph32%29.92 "Hg10 mi
4:53 pm79 °FSunny.9 mph31%29.93 "Hg10 mi
3:53 pm79 °FSunny.8 mph29%29.96 "Hg10 mi
2:53 pm78 °FSunny.10 mph28%29.99 "Hg10 mi
1:53 pm77 °FSunny.8 mph26%30.02 "Hg10 mi
12:53 pm74 °FSunny.8 mph29%30.05 "Hg10 mi
11:53 am71 °FSunny.7 mph34%30.08 "Hg10 mi
Weather by CustomWeather, © 2019

See weather overview